Regional Weather Roundup
Issued by NWS

Home | Current Version | Previous Version | Text Only | Print | Product List | Glossary Off
Versions: 1 2 3 4 5 6 7 8 9 10 11 12 13 14 15 16 17 18 19 20 21 22 23 24 25 26 27 28 29 30 31 32 33 34 35 36 37 38 39 40 41 42 43 44 45 46 47 48 49 50

000
ASUS43 KLMK 211210
RWRKY
KENTUCKY REGIONAL WEATHER ROUNDUP
NATIONAL WEATHER SERVICE LOUISVILLE KY
800 AM EDT TUE OCT 21 2014

NOTE "FAIR" INDICATES FEW OR NO CLOUDS BELOW 12,000 FEET
WITH NO SIGNIFICANT WEATHER AND/OR OBSTRUCTIONS TO VISIBILITY.

KYZ001>023-026-027-061>063-070>075-211300-
WESTERN AND SOUTH CENTRAL KENTUCKY

CITY           SKY/WX    TMP DP  RH WIND       PRES   REMARKS
PADUCAH        CLEAR     46  44  93 W3        30.05S
HENDERSON      CLEAR    N/A N/A N/A CALM      30.05R
OWENSBORO      CLEAR     44  44 100 CALM      30.04R
HOPKINSVILLE   CLEAR     48  48 100 VRB1      30.04R
BOWLING GREEN  CLEAR     46  43  89 CALM      30.03S FOG
GLASGOW        CLEAR     42  42 100 CALM      30.02R FOG
$$

KYZ024-025-028>034-038-045-046-053-211300-
NORTH CENTRAL KENTUCKY

CITY           SKY/WX    TMP DP  RH WIND       PRES   REMARKS
LOUISVILLE/SDF MOCLDY    50  47  89 SW10      30.02R
LOUISVILLE/LOU CLOUDY    47  46  97 CALM      30.02R
FORT KNOX      CLOUDY    45  43  93 NW2       30.02R
$$

KYZ035>037-039>044-047>052-055>060-089>105-211300-
NORTHEAST KENTUCKY

CITY           SKY/WX    TMP DP  RH WIND       PRES   REMARKS
LEXINGTON      MOCLDY    50  46  86 NW7       29.99R
COVINGTON      PTCLDY    45  42  89 W8        29.99R
FRANKFORT      CLOUDY    48  45  89 NW7       29.99R
$$

KYZ054-064>069-076>088-106>120-211300-
SOUTHEAST KENTUCKY

CITY           SKY/WX    TMP DP  RH WIND       PRES   REMARKS
JACKSON        MOCLDY    48  46  93 VRB3      29.96R
LONDON         MOCLDY    44  41  89 CALM      29.99S FOG
SOMERSET       FOG       43  43 100 CALM      30.02R VSB 1/4
MIDDLESBORO    CLEAR     43  43  99 CALM      30.00R
MONTICELLO     FOG       39  39 100 CALM      30.03R VSB<1/4
$$



USA.gov is the U.S. government's official web portal to all federal, state and local government web resources and services.